Sexton Summit, OR

10:48 AM PDT on May 21, 2018 (GMT -0700)
Sexton Summit

Weather History for KSXT - January, 2014

Change the Weather History Date:

Sunday, January 26, 2014

  Actual Average Record
Temperature  
Mean Temperature 52 °F -  
Max Temperature 59 °F 39 °F 61 °F (2015)
Min Temperature 46 °F 31 °F 23 °F (2002)
Degree Days  
Heating Degree Days 12    
Growing Degree Days 2 (Base 50)    
Moisture  
Dew Point 23 °F    
Average Humidity 33    
Maximum Humidity 46    
Minimum Humidity 23    
Precipitation  
Precipitation 0.00 in - - ()
Sea Level Pressure  
Sea Level Pressure 30.09 in    
Wind  
Wind Speed 6 mph (SE)    
Max Wind Speed 10 mph    
Max Gust Speed -    
Visibility 10 miles    
Events      
Averages and records for this station are not official NWS values.
T = Trace of Precipitation, MM = Missing Value Source: NWS Daily Summary

Daily Weather History Graph

Daily Weather History Graph

Search for Another Location

Airport or City:

Astronomy

Jan. 26, 2014 Rise Set
Actual Time 7:33 AM PST 5:19 PM PST
Civil Twilight 7:02 AM PST 5:49 PM PST
Nautical Twilight 6:28 AM PST 6:23 PM PST
Astronomical Twilight 5:55 AM PST 6:57 PM PST
Moon 3:17 AM PST (1/26) 1:12 PM PST (1/26)
Length of Visible Light 10h 46m
Length of Day
9h 46m
Waning Crescent, 23% of the Moon is Illuminated
Jan 26
Waning Crescent
Jan 30
New
Feb 6
First Quarter
Feb 14
Full
Feb 22
Last Quarter

Hourly Weather History & Observations

Time (PST) Temp. Dew Point Humidity Pressure Visibility Wind Dir Wind Speed Gust Speed Precip Events Conditions
12:56 AM 51.1 °F 23.0 °F 33% 30.14 in 10.0 mi ESE 6.9 mph - N/A   Clear
1:56 AM 48.9 °F 24.1 °F 38% 30.14 in 10.0 mi ESE 6.9 mph - N/A   Clear
2:56 AM 50.0 °F 24.1 °F 36% 30.15 in 10.0 mi East 4.6 mph - N/A   Clear
3:56 AM 51.1 °F 21.0 °F 31% 30.14 in 10.0 mi East 3.5 mph - N/A   Clear
4:56 AM 50.0 °F 19.9 °F 31% 30.13 in 10.0 mi East 3.5 mph - N/A   Clear
5:56 AM 48.9 °F 19.0 °F 31% 30.12 in 10.0 mi ESE 8.1 mph - N/A   Clear
6:56 AM 46.9 °F 19.9 °F 34% 30.12 in 10.0 mi ESE 6.9 mph - N/A   Clear
7:56 AM 48.0 °F 19.9 °F 33% 30.10 in 10.0 mi ESE 10.4 mph - N/A   Clear
8:56 AM 51.1 °F 21.0 °F 31% 30.11 in 10.0 mi East 8.1 mph - N/A   Clear
9:56 AM 53.1 °F 21.0 °F 29% 30.11 in 10.0 mi ESE 9.2 mph - N/A   Clear
10:56 AM 54.0 °F 21.9 °F 29% 30.11 in 10.0 mi SE 8.1 mph - N/A   Clear
11:56 AM 55.9 °F 23.0 °F 28% 30.08 in 10.0 mi SE 5.8 mph - N/A   Clear
12:56 PM 57.9 °F 25.0 °F 28% 30.05 in 10.0 mi SSE 5.8 mph - N/A   Clear
1:56 PM 57.9 °F 19.9 °F 23% 30.04 in 10.0 mi Variable 5.8 mph - N/A   Clear
2:56 PM 59.0 °F 21.9 °F 24% 30.02 in 10.0 mi SW 4.6 mph - N/A   Clear
3:56 PM 55.9 °F 19.9 °F 25% 30.03 in 10.0 mi South 3.5 mph - N/A   Clear
4:56 PM 54.0 °F 21.9 °F 29% 30.04 in 10.0 mi SW 4.6 mph - N/A   Clear
5:56 PM 54.0 °F 23.0 °F 30% 30.04 in 10.0 mi WSW 5.8 mph - N/A   Clear
6:56 PM 52.0 °F 27.0 °F 38% 30.06 in 10.0 mi WNW 4.6 mph - N/A   Clear
7:56 PM 50.0 °F 27.0 °F 41% 30.08 in 10.0 mi NW 8.1 mph - N/A   Clear
8:56 PM 48.9 °F 26.1 °F 41% 30.08 in 10.0 mi NW 6.9 mph - N/A   Clear
9:56 PM 50.0 °F 27.0 °F 41% 30.08 in 10.0 mi WNW 5.8 mph - N/A   Clear
10:56 PM 48.9 °F 26.1 °F 41% 30.08 in 10.0 mi SSE 3.5 mph - N/A   Clear
11:56 PM 46.9 °F 27.0 °F 46% 30.06 in 10.0 mi South 10.4 mph - N/A   Clear